TimeEST,TemperatureF,Dew PointF,Humidity,Sea Level PressureIn,VisibilityMPH,Wind Direction,Wind SpeedMPH,Gust SpeedMPH,PrecipitationIn,Events,Conditions,WindDirDegrees,DateUTC
12:54 AM,33.1,28.0,82,30.64,10.0,Calm,Calm,-,N/A,,Clear,0,2012-11-18 05:54:00
1:54 AM,30.0,27.0,88,30.65,10.0,Calm,Calm,-,N/A,,Clear,0,2012-11-18 06:54:00
2:54 AM,30.9,27.0,85,30.64,10.0,Calm,Calm,-,N/A,,Clear,0,2012-11-18 07:54:00
3:54 AM,30.9,28.0,89,30.64,10.0,Calm,Calm,-,N/A,,Clear,0,2012-11-18 08:54:00
4:54 AM,30.9,28.0,89,30.65,9.0,Calm,Calm,-,N/A,,Clear,0,2012-11-18 09:54:00
5:54 AM,30.9,28.0,89,30.66,10.0,Calm,Calm,-,N/A,,Clear,0,2012-11-18 10:54:00
6:54 AM,30.9,27.0,85,30.67,10.0,Calm,Calm,-,N/A,,Clear,0,2012-11-18 11:54:00
7:54 AM,30.9,28.0,89,30.68,8.0,Calm,Calm,-,N/A,,Clear,0,2012-11-18 12:54:00
8:54 AM,34.0,30.9,89,30.67,8.0,Calm,Calm,-,N/A,,Clear,0,2012-11-18 13:54:00
9:54 AM,39.0,32.0,76,30.67,10.0,North,4.6,-,N/A,,Clear,360,2012-11-18 14:54:00
10:54 AM,43.0,33.1,68,30.66,10.0,Variable,5.8,-,N/A,,Clear,0,2012-11-18 15:54:00
11:54 AM,45.0,34.0,65,30.63,10.0,North,8.1,-,N/A,,Clear,10,2012-11-18 16:54:00
12:54 PM,46.0,35.1,66,30.61,10.0,North,5.8,-,N/A,,Clear,10,2012-11-18 17:54:00
1:54 PM,48.9,36.0,61,30.61,10.0,NNW,4.6,-,N/A,,Clear,340,2012-11-18 18:54:00
2:54 PM,48.9,36.0,61,30.59,10.0,North,8.1,-,N/A,,Partly Cloudy,350,2012-11-18 19:54:00
3:54 PM,48.0,35.1,61,30.58,10.0,NE,6.9,-,N/A,,Clear,50,2012-11-18 20:54:00
4:54 PM,46.0,34.0,63,30.58,10.0,NE,4.6,-,N/A,,Clear,50,2012-11-18 21:54:00
5:54 PM,43.0,34.0,71,30.59,10.0,ENE,3.5,-,N/A,,Clear,60,2012-11-18 22:54:00
6:54 PM,43.0,33.1,68,30.61,10.0,ENE,3.5,-,N/A,,Clear,60,2012-11-18 23:54:00
7:54 PM,37.9,33.1,83,30.60,10.0,Calm,Calm,-,N/A,,Clear,0,2012-11-19 00:54:00
8:54 PM,37.0,32.0,82,30.61,9.0,North,3.5,-,N/A,,Clear,350,2012-11-19 01:54:00
9:54 PM,36.0,32.0,86,30.60,8.0,NNW,3.5,-,N/A,,Clear,340,2012-11-19 02:54:00
10:54 PM,35.1,30.9,85,30.59,9.0,Calm,Calm,-,N/A,,Clear,0,2012-11-19 03:54:00
11:50 PM,33.8,30.2,87,30.54,8.0,Calm,Calm,-,N/A,,Mostly Cloudy,0,2012-11-19 04:50:00